Location: Helsinki
(60.1699°N, 24.9384°E)
Time: 15:24:23
(UTC+02:00)

Tiros 1 - Pass Details

Date: 06 October 2022
Orbit: 629 x 662 km, 48.4° (Epoch: 07 December)

Event Time Altitude Azimuth Distance (km) Brightness Sun altitude
Rises 02:27:12 0° 244° (WSW) 2,992 - -32.9°
Reaches altitude 10° 02:30:03 10° 228° (SW) 2,077 - -32.7°
Maximum altitude 02:33:31 20° 182° (S) 1,513 - -32.5°
Drops below altitude 10° 02:36:58 10° 135° (SE) 2,066 - -32.3°
Sets 02:39:48 0° 119° (ESE) 2,971 - -32.2°
